Overview Statistics Trail Chart Weather Telemetry Raw packets
 

This is the latest recevied weather packets stored in our database for station/object KB9OQF-5. If no packets are shown the sender has not sent any weather packets the latest 10 day(s).

<< 4 5 6 7 8 9 10 >>
Time Temp. Humidity Pressure Rain* Wind** Luminosity Snow
1788144683 23.33° C 79% 988 hPa 0 mm - - -
1788144333 23.33° C 79% 988 hPa 0 mm - - -
1788142933 23.33° C 79% 988 hPa 0 mm - - -
1788126133 27.78° C 53% 988 hPa 0 mm - - -
1788117733 26.67° C 57% 987 hPa 0 mm - - -
1788115285 25.56° C 71% 988 hPa 0 mm - - -
1788114234 25° C 75% 987 hPa 0 mm - - -
1788112832 23.89° C 80% 989 hPa 0 mm - - -
1788112482 23.89° C 81% 989 hPa 0 mm - - -
1788112134 23.33° C 82% 989 hPa 0 mm - - -
1788108632 23.33° C 79% 991 hPa 0 mm - - -
1788107589 22.78° C 77% 991 hPa 0 mm - - -
1788106883 22.78° C 78% 990 hPa 0 mm - - -
1788106139 22.78° C 78% 991 hPa 0 mm - - -
1788105132 22.78° C 78% 991 hPa 0 mm - - -
1788104783 22.78° C 79% 991 hPa 0 mm - - -
1788104433 22.78° C 79% 991 hPa 0 mm - - -
1788104082 22.78° C 78% 991 hPa 0 mm - - -
1788097782 21.11° C 77% 989 hPa 0 mm - - -
1788096382 21.11° C 77% 989 hPa 0 mm - - -
1788095347 21.11° C 78% 989 hPa 0 mm - - -
1788094282 20.56° C 79% 989 hPa 0 mm - - -
1788092882 20.56° C 80% 989 hPa 0 mm - - -
1788090782 20° C 83% 989 hPa 0 mm - - -
1788090432 20° C 83% 989 hPa 0 mm - - -

* Rain latest hour (hover to see other rain measurements)
** Current wind speed in m/s (hover to see current wind gust speed)